GW3154 Weather Reports


Display with metric or nautical units.
time (UTC)temp
F
wind
direction
speed
MPH
gust
MPH
rain 1hr
in
rain 24hr
in
rain mn
in
humidity
%
barometer
mb
20260504195659 66 204 3.0 3.0 0.00 0.00 0.00 74 1015.0
20260504194159 64 247 1.0 2.0 0.00 0.00 0.00 77 1015.1
20260504192658 63 171 1.0 2.0 0.00 0.00 0.00 75 1015.2
20260504191155 61 171 5.0 6.0 0.00 0.00 0.00 77 1015.5
20260504185651 60 177 3.0 5.0 0.00 0.00 0.00 81 1015.5
20260504184150 59 210 2.0 3.0 0.00 0.00 0.00 82 1015.4
20260504182648 59 203 4.0 5.0 0.00 0.00 0.00 82 1015.5
20260504181146 59 195 4.0 6.0 0.00 0.00 0.00 83 1015.4
20260504175646 58 192 2.0 3.0 0.00 0.00 0.00 83 1015.3
20260504174143 58 190 3.0 5.0 0.00 0.00 0.00 84 1015.5
20260504172640 58 162 6.0 10.0 0.00 0.00 0.00 84 1015.3
20260504171136 57 190 6.0 9.0 0.00 0.00 0.00 85 1015.3
20260504151114 55 228 2.0 5.0 0.00 0.00 0.00 88 1015.1
20260504141107 55 177 5.0 7.0 0.00 0.00 0.00 90 1014.6
20260504081000 59 162 2.0 2.0 0.00 0.00 0.00 80 1011.3
20260504045419 68 73 0.0 0.0 0.00 0.00 0.00 67 1008.7
20260504043916 69 73 0.0 0.0 0.00 0.00 0.00 63 1008.8
20260504042413 70 64 0.0 0.0 0.00 0.00 0.00 61 1008.5
20260504040908 71 64 0.0 0.0 0.00 0.00 0.00 62 1008.5
20260504035405 73 64 0.0 0.0 0.00 0.00 0.00 56 1008.3
20260504033901 74 65 0.0 0.0 0.00 0.00 0.00 55 1008.1
20260504032359 75 82 0.0 0.0 0.00 0.00 0.00 53 1008.2
20260504030855 76 25 0.0 0.0 0.00 0.00 0.00 54 1007.9
20260504025351 79 317 0.0 0.0 0.00 0.00 0.00 50 1007.9
20260504023847 82 316 0.0 0.0 0.00 0.00 0.00 45 1007.8
20260504022342 84 316 0.0 0.0 0.00 0.00 0.00 41 1007.7
20260504020839 86 27 0.0 0.0 0.00 0.00 0.00 37 1007.7
20260504015334 86 299 1.0 2.0 0.00 0.00 0.00 36 1007.7
20260504013830 87 51 1.0 2.0 0.00 0.00 0.00 34 1007.8
20260504012327 88 296 1.0 1.0 0.00 0.00 0.00 33 1007.8
20260504010822 91 313 1.0 2.0 0.00 0.00 0.00 32 1008.0
20260504005318 91 314 3.0 3.0 0.00 0.00 0.00 32 1008.0
20260504003815 91 50 2.0 2.0 0.00 0.00 0.00 28 1008.3
20260504002311 92 50 1.0 1.0 0.00 0.00 0.00 30 1008.2
20260504000809 93 100 0.0 0.0 0.00 0.00 0.00 31 1008.5
20260503235307 92 46 1.0 1.0 0.00 0.00 0.00 30 1008.3
20260503233805 92 27 1.0 1.0 0.00 0.00 0.00 30 1008.4
20260503232301 92 65 0.0 1.0 0.00 0.00 0.00 29 1008.5
20260503230802 92 70 1.0 3.0 0.00 0.00 0.00 30 1008.9
20260503225258 91 147 0.0 1.0 0.00 0.00 0.00 33 1009.2
20260503223755 91 346 2.0 2.0 0.00 0.00 0.00 34 1009.4
20260503222253 90 43 1.0 1.0 0.00 0.00 0.00 38 1009.7
20260503220751 89 54 0.0 0.0 0.00 0.00 0.00 41 1009.8
20260503215247 89 278 2.0 2.0 0.00 0.00 0.00 41 1010.1
20260503213746 87 138 0.0 0.0 0.00 0.00 0.00 43 1010.2
20260503212243 87 306 3.0 6.0 0.00 0.00 0.00 43 1010.3
20260503210738 86 30 1.0 1.0 0.00 0.00 0.00 46 1010.7
20260503205233 86 227 1.0 1.0 0.00 0.00 0.00 47 1010.7
20260503203730 84 92 0.0 0.0 0.00 0.00 0.00 48 1010.8
20260503202228 84 218 1.0 1.0 0.00 0.00 0.00 51 1011.1
20260503200725 82 65 1.0 1.0 0.00 0.00 0.00 50 1011.4